www.pogodaiklimat.ru

Погода и климат >> Архив погоды >> Новая Зеландия >> Мыс Кэмпбелл


ПОГОДА на Мысе Кэмпбелл

  • Прогноз погоды на Мысе Кэмпбелл
  • Монитор погоды на Мысе Кэмпбелл

АРХИВ ПОГОДЫ на Мысе Кэмпбелл

Время (UTC), дата Ветер
(напр.,м/с)
 
Видим.   Явления Облачность Т
(С)
Тd
(С)
f
(%)
Тe
(С)
Тes
(С)
Комфортность P
(гПа)
Po
(гПа)
Тmin
(С)
Tmax
(С)
R
(мм)
R24
(мм)
S
(см)
18 13.09 Ю 5 н/о н/о +8.6 +8.0 96 +5 +5 1012.6 1012.0 4
21 13.09 ЮЗ 5 н/о н/о +8.7 +8.3 97 +5 +5 1012.3 1011.7
00 14.09 Ю 4 н/о н/о +9.9 +9.1 95 +7 +7 1010.0 1009.4 +8.5 6
03 14.09 В 1 н/о н/о +9.9 +9.1 95 +10 +10 1007.7 1007.1
06 14.09 С 5 н/о н/о +10.4 +9.3 93 +7 +7 1007.2 1006.6 0.2
09 14.09 С 6 н/о н/о +11.2 +9.5 89 +8 +8 1007.1 1006.5
12 14.09 С 5 н/о н/о +11.1 +9.7 91 +8 +8 1005.2 1004.6 +11.6 0.2
15 14.09 Ю 8 н/о н/о +9.3 +8.6 95 +5 +5 1003.5 1002.9
18 14.09 Ю 10 н/о н/о +8.5 +7.8 95 +3 +3 1002.8 1002.2 15
21 14.09 ЮЗ 3 н/о н/о +9.5 +7.5 87 +7 +7 1005.3 1004.7
00 15.09 СВ 3 н/о н/о +9.9 +8.4 90 +8 +8 1006.3 1005.7 +8.4 18
03 15.09 В 4 н/о н/о +11.1 +8.6 85 +9 +9 1005.4 1004.8
06 15.09 Ю 2 н/о н/о +9.1 +7.2 88 +7 +7 1005.7 1005.1
09 15.09 Ю 2 н/о н/о +8.8 +6.8 87 +7 +7 1006.9 1006.3
12 15.09 З 4 н/о н/о +8.1 +6.5 90 +5 +5 1006.3 1005.7 +11.7
15 15.09 З 5 н/о н/о +8.9 +4.5 74 +6 +6 1004.6 1004.0
18 15.09 З 4 н/о н/о +9.7 +2.5 61 +7 +7 1005.4 1004.8
21 15.09 СЗ 8 н/о н/о +12.6 +6.8 68 +10 +10 1007.4 1006.8
00 16.09 СЗ 12 н/о н/о +13.6 +6.6 63 +10 +10 1007.9 1007.3 +8.1
03 16.09 СЗ 16 н/о н/о +14.0 +8.1 68 +10 +10 1006.5 1005.9
06 16.09 С 12 н/о н/о +12.4 +9.8 84 +8 +8 1006.4 1005.8
09 16.09 С 9 н/о н/о +13.8 +9.1 73 +11 +11 1004.9 1004.3
12 16.09 СЗ 15 н/о н/о +14.9 +6.6 58 +12 +12 1000.9 1000.3 +15.4
15 16.09 СЗ 24 н/о н/о +15.1 +7.7 61 +11 +11 998.5 997.9
18 16.09 З 9 н/о н/о +14.7 +8.5 66 +12 +12 1004.4 1003.8
21 16.09 Ю 6 н/о н/о +14.9 +8.3 65 +13 +13 1008.1 1007.5
00 17.09 Ю 6 н/о н/о +14.1 +7.3 64 +12 +12 1011.5 1010.9 +12.2
03 17.09 Ю 4 н/о н/о +13.0 +6.4 64 +11 +11 1013.5 1012.9
06 17.09 Ю 4 н/о н/о +11.6 +8.3 80 +10 +10 1017.3 1016.7
09 17.09 ЮЗ 1 н/о н/о +10.2 +6.7 79 +11 +11 1021.8 1021.1
12 17.09 ЮЗ 6 н/о н/о +8.4 +3.4 71 +5 +5 1025.8 1025.1 +16.1
15 17.09 Ю 3 н/о н/о +8.8 +4.3 73 +6 +6 1027.2 1026.5
18 17.09 З 4 н/о н/о +7.5 +3.9 78 +4 +4 1028.8 1028.2
21 17.09 СЗ 5 н/о н/о +9.7 +4.4 70 +7 +7 1029.7 1029.0
00 18.09 С 9 н/о н/о +11.8 +8.1 78 +8 +8 1028.7 1028.0 +7.1
03 18.09 С 11 н/о н/о +12.2 +8.2 77 +9 +9 1027.0 1026.4
06 18.09 С 8 н/о н/о +12.0 +7.2 72 +9 +9 1028.3 1027.6
09 18.09 Ю 2 н/о н/о +9.8 +2.0 58 +9 +9 1030.5 1029.8
12 18.09 З 3 н/о н/о +8.5 +3.8 72 +6 +6 1031.2 1030.5 +12.6
15 18.09 З 3 н/о н/о +8.3 +3.2 70 +6 +6 1031.3 1030.7
18 18.09 З 3 н/о н/о +7.4 +3.3 75 +5 +5 1032.3 1031.7
21 18.09 З 4 н/о н/о +9.5 +3.9 68 +7 +7 1033.1 1032.4
00 19.09 С 4 н/о н/о +11.8 +7.6 75 +10 +10 1032.9 1032.2 +7.0
03 19.09 С 5 н/о н/о +12.6 +9.3 80 +10 +10 1031.5 1030.8
06 19.09 С 5 н/о н/о +11.3 +8.8 85 +9 +9 1031.2 1030.5
09 19.09 Ю 2 н/о н/о +9.5 +7.9 90 +8 +8 1032.2 1031.5
12 19.09 ЮЗ 6 н/о н/о +9.8 +7.3 84 +6 +6 1033.6 1032.9 +13.0
15 19.09 ЮЗ 4 н/о н/о +9.2 +6.7 84 +6 +6 1033.7 1033.1
18 19.09 ЮЗ 4 н/о н/о +8.8 +6.3 84 +6 +6 1034.7 1034.1
21 19.09 Ю 6 н/о н/о +11.0 +7.6 80 +8 +8 1037.2 1036.5
00 20.09 Ю 8 н/о н/о +12.6 +7.2 70 +10 +10 1037.6 1036.9 +8.4
03 20.09 Ю 8 н/о н/о +13.1 +8.6 74 +10 +10 1036.8 1036.1
06 20.09 Ю 9 н/о н/о +10.6 +8.3 86 +7 +7 1037.1 1036.4
09 20.09 Ю 6 н/о н/о +10.3 +8.6 89 +7 +7 1037.9 1037.2
12 20.09 ЮЗ 1 н/о н/о +9.7 +7.8 88 +9 +9 1038.0 1037.4 +13.5
15 20.09 З 2 н/о н/о +8.8 +6.3 84 +7 +7 1037.2 1036.6

 

Местоположение метеостанции Мыс Кэмпбелл (Новая Зеландия): широта -41.73 долгота 174.20 высота над уровнем моря 32 м.

В архиве по умолчанию представлена погода на Мысе Кэмпбелл за последнюю неделю. Архивные данные за месяц целиком и за предыдущие месяцы, начиная с января 2011 года, Вы можете получить, выбрав интересующий диапазон дат из раскрывающегося списка и нажав кнопку "Ввод!".


*Определитесь, кто Вы:
робот инопланетянин человек

Внимание! Время в таблицах - всемирное. Для получения местного времени необходимо прибавить поправку, которая равна 12 ч.

Смотрите также архив погоды в соседних городах и на ближайших метеорологических станциях:

Погода в Веллингтоне (Новая Зеландия) (67 км)
Погода в Кайкуре (Новая Зеландия) (86 км)
Погода в Нельсоне (Новая Зеландия) (95 км)
Погода в Парапарауму (Новая Зеландия) (113 км)
Погода на Косе Farewell (Новая Зеландия) (165 км)
Погода в Каслпойнт (Новая Зеландия) (193 км)
Погода в Пальмерстон-Норте (Новая Зеландия) (197 км)
Погода в Вестпорте (Новая Зеландия) (219 км)
Погода в Крайстчерче (Новая Зеландия) (239 км)
Погода на Уэйауру (Новая Зеландия) (284 км)

Пояснения к столбцам:

Ветер - указаны скорость ветра в м/с - средняя за 10 мин, порывы в срок и между сроками (в фигурных скобках) и направление, откуда дует ветер: С - северный, СВ - северо-восточный, В - восточный, ЮВ - юго-восточный, Ю - южный, ЮЗ - юго-западный, З - западный, СЗ - северо-западный.
Видимость - горизонтальная дальность видимости в метрах или километрах. При видимости от 1 до 10 км при отсутствии осадков обычно наблюдается дымка, при ухудшении видимости до 1 км и менее - туман. В сухую погоду видимость может ухудшаться дымом, пылью или мглою.
Явления - указаны атмосферные явления, наблюдавшиеся в срок или в последний час перед сроком; фигурными скобками обозначены явления, наблюдавшиеся между сроками (за 1-3 часа до срока); квадратными скобками обозначены град или гололедные отложения с указанием их диаметра в мм.
Облачность - указаны через наклонную черту общая и нижняя облачность в баллах и высота нижней границы облаков в метрах; квадратными скобками обозначены формы облаков: Ci - перистые, Cs - перисто-слоистые, Cc - перисто-кучевые, Ac - высококучевые, As - высокослоистые, Sc - слоисто-кучевые, Ns - слоисто-дождевые, Cu - кучевые, Cb - кучево-дождевые. Подробнее классификацию облаков см. в Атласе облаков (PDF).
T - Температура воздуха - температура, измеренная на высоте 2 м над землей.
Td - Температура точки росы - температура, при понижении до которой содержащийся в воздухе водяной пар достигнет насыщения.
f - Относительная влажность воздуха - влажноcть воздуха, измеренная на высоте 2 м над землей.
Te - Эффективная температура - температура, которую ощущает одетый по сезону человек в тени. Характеристика душности погоды. При расчете учитывается влияние влажности воздуха и скорости ветра на теплоощущения человека.
Tes - Эффективная температура на солнце - температура, которую ощущает человек, с поправкой на солнечный нагрев. Характеристика знойности погоды. Зависит от высоты солнца над горизонтом, облачности и скорости ветра. Ночью, в пасмурную погоду, а также при ветре 12 м/с и более поправка равна нулю.
P - Атмосферное давление - приведенное к уровню моря атмосферное давление.
Po - Атмосферное давление - измеренное на уровне метеостанции атмосферное давление.
Tmin - Минимальная температура - минимум температуры воздуха на высоте 2 м над землей.
Tmax - Максимальная температура - максимум температуры воздуха на высоте 2 м над землей.
R - Количество осадков - Количество выпавших осадков за период времени, мм. При наведении курсора мыши на число - период времени, за который выпало указанное количество осадков.
R24 - Количество осадков - Количество выпавших осадков за 24 часа, мм.
S - Снежный покров - Высота снежного покрова, см. При наведении курсора мыши на число - состояние снежного покрова и степень покрытия местности в баллах.